Regional Weather Roundup
Issued by NWS

Home | Current Version | Previous Version | Graphics & Text | Print | Product List | Glossary On
Versions: 1 2 3 4 5 6 7 8 9 10 11 12 13 14 15 16 17 18 19 20 21 22 23 24 25 26 27 28 29 30 31 32 33 34 35 36 37 38 39 40 41 42 43 44 45 46 47 48 49 50
000
ASUS43 KIND 040609
RWRIN

WEATHER ROUNDUP FOR INDIANA
NATIONAL WEATHER SERVICE INDIANAPOLIS IN
200 AM EDT SAT JUL 04 2015

NOTE: "FAIR" INDICATES FEW OR NO CLOUDS BELOW 12,000 FEET WITH NO
SIGNIFICANT WEATHER AND/OR OBSTRUCTIONS TO VISIBILITY.

* - STATION DOES NOT REPORT WEATHER SUCH AS PRECIPITATION OR FOG.

+ - STATION NOT QUALITY CONTROLLED BY THE NATIONAL WEATHER SERVICE.
    USE DATA WITH CAUTION...ESPECIALLY DEWPOINT AND RELATIVE
    HUMIDITY OBSERVATIONS.

INZ001>003-010>013-019-020-040700-
NORTHWEST INDIANA

CITY           SKY/WX    TMP DP  RH WIND       PRES   REMARKS
GARY /AIRPORT/ CLEAR    N/A N/A N/A CALM      29.96S FOG
KNOX *+        CLEAR     55  55 100 CALM      29.95S
LA PORTE +     CLEAR     56  56 100 CALM      29.96S FOG
6HR MIN TEMP:  56; 6HR MAX TEMP:  70;

MICHIGAN CITY+ CLEAR     54  54 100 CALM      29.96S FOG
MONTICELLO +   CLEAR     62  59  93 CALM      29.95R
6HR MIN TEMP:  61; 6HR MAX TEMP:  73;

RENSSELAER +   CLEAR     59  59 100 CALM      29.96S
VALPARAISO     CLEAR     57  55  93 CALM      29.96S
6HR MIN TEMP:  56; 6HR MAX TEMP:  70;


$$

LMZ046-743>745-040700-
SOUTHERN LAKE MICHIGAN

STATION/POSITION TIME  TEMP    WIND        PRES    WAVE
                       AIR SEA DIR/SP/G            HT
                 (UTC) (F)     (DEG/KT/KT) (MB)    (FT)
BURNS HARBOR     0600   62     180/  3/  4 1014.9S
MICHIGAN CITY    0600   61     160/  1/  2   N/A
5NW MICH CITY    0600   62 64  190/  2/  2   N/A     1

$$

INZ004-005-014>016-021>024-040700-
NORTH CENTRAL INDIANA

CITY           SKY/WX    TMP DP  RH WIND       PRES   REMARKS
GOSHEN         CLEAR     58  56  93 CALM      29.96R FOG
6HR MIN TEMP:  58; 6HR MAX TEMP:  74;

LOGANSPORT +   CLEAR     59  55  88 N3        29.96S
PERU/GRISSOM   CLEAR     63  60  88 CALM      29.94S
6HR MIN TEMP:  63; 6HR MAX TEMP:  73;

ROCHESTER +    CLEAR     63  61  94 CALM      29.96R
SOUTH BEND     CLEAR     59  54  83 CALM      29.96S
6HR MIN TEMP:  59; 6HR MAX TEMP:  72;

WARSAW +         N/A     55  55 100 CALM      29.96R FOG

$$

INZ006>009-017-018-025>027-040700-
NORTHEAST INDIANA

CITY           SKY/WX    TMP DP  RH WIND       PRES   REMARKS
ANGOLA *+        N/A     57  46  67 CALM      29.95S
AUBURN +       CLEAR     57  54  88 CALM      29.96S
FORT WAYNE     MOCLDY    61  57  87 CALM      29.95S
6HR MIN TEMP:  61; 6HR MAX TEMP:  72;

HUNTINGTON +   CLEAR     60  59  97 CALM      29.95S FOG
6HR MIN TEMP:  59; 6HR MAX TEMP:  71;


$$

INZ028-029-035-036-043>045-051>053-040700-
WEST CENTRAL INDIANA

CITY           SKY/WX    TMP DP  RH WIND       PRES   REMARKS
CRAWFORDSVL +  CLEAR     59  58  97 CALM      29.95S FOG
6HR MIN TEMP:  59; 6HR MAX TEMP:  71;

GREENCASTLE +  PTCLDY    64  59  82 N5        29.95R
LAFAYETTE      CLEAR     63  58  83 CALM      29.95R
6HR MIN TEMP:  61; 6HR MAX TEMP:  73;

TERRE HAUTE    CLOUDY    66  63  90 NE3       29.94S
6HR MIN TEMP:  65; 6HR MAX TEMP:  75;


$$

INZ030>032-037>040-046>048-054>057-064-065-040700-
CENTRAL INDIANA

CITY           SKY/WX    TMP DP  RH WIND       PRES   REMARKS
CP ATTERBURY + CLOUDY    64  63  94 CALM      29.93S FOG
FISHERS *+     PTCLDY    64  64 100 CALM      29.94S
FRANKFORT +    PTCLDY   N/A N/A N/A CALM      29.96F HAZE
GREENWOOD *+   CLOUDY    68  64  88 CALM      29.94S
INDIANAPOLIS   CLOUDY    68  63  84 NW6       29.92S
6HR MIN TEMP:  68; 6HR MAX TEMP:  73;

-EAGLE CREEK   CLOUDY    68  63  84 N5        29.93S
6HR MIN TEMP:  68; 6HR MAX TEMP:  71;

KOKOMO *+      CLEAR     63  59  88 CALM      29.94S
6HR MIN TEMP:  63; 6HR MAX TEMP:  73;

MARION +       CLEAR     60  59  96 CALM      29.95S FOG
MT COMFORT *+  PTCLDY    66 N/A N/A CALM      29.94S
SHELBYVILLE    CLOUDY    68  65  90 CALM      29.92S FOG
6HR MIN TEMP:  66; 6HR MAX TEMP:  74;

ZIONSVILLE +   CLEAR     64  60  87 CALM      29.96R
6HR MIN TEMP:  64; 6HR MAX TEMP:  70;


$$

INZ033-034-041-042-049-050-058-059-040700-
EAST CENTRAL INDIANA

CITY           SKY/WX    TMP DP  RH WIND       PRES   REMARKS
MUNCIE         PTCLDY    64  62  93 CALM      29.94S
6HR MIN TEMP:  64; 6HR MAX TEMP:  73;


$$

INZ060-061-067>069-081>083-085>088-040700-
SOUTHWEST INDIANA

CITY           SKY/WX    TMP DP  RH WIND       PRES   REMARKS
EVANSVILLE     PTCLDY    69  67  93 N5        29.92R FOG
6HR MIN TEMP:  69; 6HR MAX TEMP:  76; 6HR PCP:  0.12;

HUNTINGBURG *+ CLEAR     66  64  94 CALM      29.92R
6HR MIN TEMP:  66; 6HR MAX TEMP:  73; 6HR PCP:  0.01;

WASHINGTON +   CLEAR     64  61  88 NW3       29.92S FOG
6HR MIN TEMP:  64; 6HR MAX TEMP:  73;


$$

INZ062-063-066-070>080-084-089>092-040700-
SOUTH CENTRAL AND SOUTHEAST INDIANA

CITY           SKY/WX    TMP DP  RH WIND       PRES   REMARKS
BLOOMINGTON    PTCLDY    64  63  96 CALM      29.93S FOG
6HR MIN TEMP:  63; 6HR MAX TEMP:  72;

MADISON *+     CLOUDY    68  63  83 CALM      29.94R VSB 1/2
NORTH VERNON + CLOUDY    68  68 100 CALM      29.93S FOG
SEYMOUR +      CLOUDY    68  64  88 CALM      29.92S

$$



USA.gov is the U.S. government's official web portal to all federal, state and local government web resources and services.